Regional Weather Roundup
Issued by NWS

Home | Current Version | Previous Version | Text Only | Print | Product List | Glossary Off
Versions: 1 2 3 4 5 6 7 8 9 10 11 12 13 14 15 16 17 18 19 20 21 22 23 24 25 26 27 28 29 30 31 32 33 34 35 36 37 38 39 40 41 42 43 44 45 46 47 48 49 50

000
ASUS45 KABQ 292001
RWRNM
WEATHER ROUNDUP FOR NEW MEXICO
NATIONAL WEATHER SERVICE ALBUQUERQUE NM
100 PM MST THU JAN 29 2015

NOTE: "FAIR" MEANS FEW OR NO CLOUDS BELOW 12,000 FEET AGL WITH NO
       SIGNIFICANT WEATHER OR OBSTRUCTIONS TO VISION.

      THIS PRODUCT IS RELEASED AS TWO VERSIONS.  ONE VERSION NEAR
      THE TOP OF THE HOUR CONTAINING PRELIMINARY DATA FROM ALBUQUERQUE
      AND OTHER STATIONS.  A FINAL VERSION WITH ADDITIONAL DATA IS
      ISSUED ABOUT 10 MINUTES AFTER THE HOUR.

NMZ501-503-504-510>518-292100-
NORTHWEST PLATEAU/NORTHCENTRAL MOUNTAINS

CITY           SKY/WX    TMP DP  RH WIND       PRES   REMARKS
FARMINGTON     MOSUNNY   52  30  43 SE12      30.32F
SANTA FE       CLOUDY    48  24  39 SE18G25   30.41F
TAOS           CLOUDY    45  28  53 SW6       30.41F

$$
NMZ402-403-502-505>509-292100-
WESTCENTRAL MOUNTAINS/SOUTHWEST MOUNTAINS

CITY           SKY/WX    TMP DP  RH WIND       PRES   REMARKS
GALLUP         CLOUDY    51  31  46 NE9       30.31F
GRANTS         CLOUDY    46  30  53 SE16G28   30.38F
SILVER CITY    PTSUNNY   59  32  36 SE14      30.30F

$$
NMZ407-409-411-412-292100-
SOUTHERN DESERTS

CITY           SKY/WX    TMP DP  RH WIND       PRES   REMARKS
DEMING         PTSUNNY   62  34  35 E18       30.27F
HOLLOMAN AFB   PTSUNNY   58  37  45 S6        30.27F
ALAMOGORDO     CLOUDY    57  37  47 S8        30.30F
T OR C         PTSUNNY   58  31  35 N18G25    30.31F

$$
NMZ519>523-292100-
CENTRAL VALLEYS/CENTRAL HIGHLANDS

CITY           SKY/WX    TMP DP  RH WIND       PRES   REMARKS
ALBUQUERQUE    CLOUDY    51  27  39 E22G31    30.39F
DOUBLE EAGLE   CLOUDY    52  27  37 E20G26    30.41F
MORIARTY ARPT  FAIR      46  24  43 E15       30.47F
CLINES CORNERS CLOUDY    39  24  55 E23       30.44F WCI  28
BELEN          FAIR      54  30  39 SW3       30.38F
SOCORRO        NOT AVBL

$$
NMZ524>526-539-540-292100-
SOUTHCENTRAL MOUNTAINS

CITY           SKY/WX    TMP DP  RH WIND       PRES   REMARKS
RUIDOSO        CLOUDY    41  27  56 SE15      30.47F

$$
NMZ527>531-292100-
NORTHEAST HIGHLANDS/NORTHEAST PLAINS

CITY           SKY/WX    TMP DP  RH WIND       PRES   REMARKS
LAS VEGAS      CLOUDY    39  24  55 NE10      30.49F WCI  32
RATON          CLOUDY    42  19  39 NE5       30.47F
CLAYTON        CLOUDY    47  22  37 N12       30.48F

$$
NMZ532>537-292100-
EASTCENTRAL PLAINS

CITY           SKY/WX    TMP DP  RH WIND       PRES   REMARKS
TUCUMCARI      CLOUDY    48  20  32 NE14      30.48F
CANNON AFB     CLOUDY    49  22  34 NE21      30.45F
CLOVIS AIRPORT CLOUDY    50  23  34 NE20      30.45F

$$
NMZ028-029-538-292100-
SOUTHEAST PLAINS

CITY           SKY/WX    TMP DP  RH WIND       PRES   REMARKS
ROSWELL        CLOUDY    56  30  37 NE10      30.43F
ARTESIA        CLOUDY    54  34  47 N13       30.44F
CARLSBAD       PTSUNNY   58  33  39 N13       30.40F
HOBBS          SUNNY     54  32  43 NE21      30.41F


$$


USA.gov is the U.S. government's official web portal to all federal, state and local government web resources and services.